Cardiff-Wales, United Kingdom

4:05 PM BST on August 25, 2016 (GMT +0100)
Cardiff

Weather History for EGFF - March, 2013

Change the Weather History Date:

Sunday, March 10, 2013

  Actual Average Record
Temperature  
Mean Temperature 36 °F -  
Max Temperature 41 °F 50 °F 55 °F (1997)
Min Temperature 32 °F 38 °F 30 °F (2004)
Degree Days  
Heating Degree Days 28    
Moisture  
Dew Point 31 °F    
Average Humidity 79    
Maximum Humidity 87    
Minimum Humidity 65    
Precipitation  
Precipitation 0.00 in 0.09 in - ()
Sea Level Pressure  
Sea Level Pressure 29.67 in    
Wind  
Wind Speed 18 mph ()    
Max Wind Speed 25 mph    
Max Gust Speed 39 mph    
Visibility 6.1 miles    
Events Rain    
Averages and records for this station are not official NWS values.
T = Trace of Precipitation, MM = Missing Value Source: Averaged Metar Reports

Daily Weather History Graph

Daily Weather History Graph

Search for Another Location

Airport or City:

Trip Planner

Search our weather history database for the weather conditions in past years. The results will help you decide how hot, cold, wet, or windy it might be!

Date:

Astronomy

Mar. 10, 2013 Rise Set
Actual Time 6:38 AM GMT 6:09 PM GMT
Civil Twilight 6:05 AM GMT 6:42 PM GMT
Nautical Twilight 5:26 AM GMT 7:21 PM GMT
Astronomical Twilight 4:47 AM GMT 8:01 PM GMT
Moon 5:36 AM GMT (3/10) 4:58 PM GMT (3/10)
Length of Visible Light 12h 37m
Length of Day
11h 31m
Waning Crescent, 2% of the Moon is Illuminated
Mar 10
Waning Crescent
Mar 11
New
Mar 19
First Quarter
Mar 27
Full
Apr 3
Last Quarter

Hourly Weather History & Observations

Time (GMT) Temp. Windchill Dew Point Humidity Pressure Visibility Wind Dir Wind Speed Gust Speed Precip Events Conditions
12:20 AM 41.0 °F 32.8 °F 37.4 °F 87% 29.65 in 6.2 mi ENE 16.1 mph - N/A   Mostly Cloudy
12:50 AM 39.2 °F 30.2 °F 35.6 °F 87% 29.65 in 6.2 mi ENE 17.3 mph - N/A   Mostly Cloudy
1:20 AM 39.2 °F 30.2 °F 35.6 °F 87% 29.65 in 6.2 mi ENE 17.3 mph - N/A   Mostly Cloudy
1:50 AM 39.2 °F 30.2 °F 35.6 °F 87% 29.65 in 6.2 mi ENE 17.3 mph - N/A   Mostly Cloudy
2:20 AM 39.2 °F 30.2 °F 35.6 °F 87% 29.65 in 6.2 mi ENE 17.3 mph - N/A   Mostly Cloudy
2:50 AM 39.2 °F 29.8 °F 33.8 °F 81% 29.65 in 6.2 mi ENE 18.4 mph - N/A   Mostly Cloudy
3:20 AM 37.4 °F 27.8 °F 33.8 °F 87% 29.65 in 6.2 mi ENE 17.3 mph - N/A   Mostly Cloudy
3:50 AM 37.4 °F 27.2 °F 33.8 °F 87% 29.62 in 6.2 mi ENE 19.6 mph - N/A   Mostly Cloudy
4:20 AM 37.4 °F 27.2 °F 32.0 °F 81% 29.65 in 6.2 mi ENE 19.6 mph - N/A   Mostly Cloudy
4:50 AM 37.4 °F 27.2 °F 32.0 °F 81% 29.65 in 6.2 mi ENE 19.6 mph - N/A   Mostly Cloudy
5:20 AM 37.4 °F 26.9 °F 32.0 °F 81% 29.65 in 6.2 mi ENE 20.7 mph 32.2 mph N/A   Mostly Cloudy
5:50 AM 37.4 °F 27.5 °F 32.0 °F 81% 29.65 in 6.2 mi ENE 18.4 mph - N/A   Mostly Cloudy
6:20 AM 37.4 °F 27.8 °F 32.0 °F 81% 29.65 in 6.2 mi ENE 17.3 mph - N/A   Mostly Cloudy
6:50 AM 37.4 °F 27.5 °F 32.0 °F 81% 29.65 in 6.2 mi ENE 18.4 mph - N/A   Mostly Cloudy
7:20 AM 37.4 °F 27.2 °F 32.0 °F 81% 29.65 in 6.2 mi ENE 19.6 mph - N/A   Mostly Cloudy
7:50 AM 37.4 °F 27.2 °F 32.0 °F 81% 29.65 in 6.2 mi ENE 19.6 mph - N/A   Overcast
8:20 AM 37.4 °F 26.9 °F 32.0 °F 81% 29.65 in 6.2 mi ENE 20.7 mph - N/A   Mostly Cloudy
8:50 AM 37.4 °F 26.6 °F 32.0 °F 81% 29.65 in 6.2 mi ENE 21.9 mph - N/A   Mostly Cloudy
9:20 AM 37.4 °F 27.2 °F 32.0 °F 81% 29.65 in 6.2 mi ENE 19.6 mph - N/A   Mostly Cloudy
9:50 AM 37.4 °F 27.5 °F 32.0 °F 81% 29.65 in 6.2 mi ENE 18.4 mph - N/A   Mostly Cloudy
10:20 AM 39.2 °F 29.3 °F 32.0 °F 75% 29.65 in 6.2 mi ENE 20.7 mph - N/A   Mostly Cloudy
10:50 AM 39.2 °F 29.0 °F 32.0 °F 75% 29.65 in 6.2 mi ENE 21.9 mph - N/A   Mostly Cloudy
11:20 AM 39.2 °F 29.3 °F 32.0 °F 75% 29.65 in 6.2 mi ENE 20.7 mph - N/A   Mostly Cloudy
11:50 AM 39.2 °F 29.6 °F 32.0 °F 75% 29.68 in 6.2 mi ENE 19.6 mph - N/A   Mostly Cloudy
12:20 PM 39.2 °F 29.3 °F 32.0 °F 75% 29.68 in 6.2 mi ENE 20.7 mph - N/A   Mostly Cloudy
12:50 PM 39.2 °F 29.3 °F 32.0 °F 75% 29.68 in 6.2 mi ENE 20.7 mph - N/A   Mostly Cloudy
1:20 PM 39.2 °F 29.3 °F 32.0 °F 75% 29.68 in 6.2 mi ENE 20.7 mph - N/A   Mostly Cloudy
1:50 PM 39.2 °F 29.8 °F 32.0 °F 75% 29.68 in 6.2 mi East 18.4 mph - N/A   Mostly Cloudy
2:20 PM 39.2 °F 28.7 °F 32.0 °F 75% 29.68 in 6.2 mi ENE 23.0 mph - N/A   Mostly Cloudy
2:50 PM 37.4 °F 26.6 °F 32.0 °F 81% 29.68 in 6.2 mi ENE 21.9 mph - N/A   Mostly Cloudy
3:20 PM 37.4 °F 26.9 °F 32.0 °F 81% 29.68 in 6.2 mi ENE 20.7 mph 32.2 mph N/A   Mostly Cloudy
3:50 PM 37.4 °F 26.4 °F 30.2 °F 75% 29.68 in 6.2 mi ENE 23.0 mph - N/A   Mostly Cloudy
4:20 PM 37.4 °F 26.9 °F 30.2 °F 75% 29.68 in 6.2 mi ENE 20.7 mph - N/A   Mostly Cloudy
4:50 PM 35.6 °F 23.7 °F 30.2 °F 81% 29.68 in 6.2 mi ENE 24.2 mph - N/A Rain Light Rain
5:20 PM 35.6 °F 24.0 °F 32.0 °F 87% 29.68 in 4.3 mi ENE 23.0 mph - N/A Rain Light Rain
5:50 PM 35.6 °F 24.0 °F 30.2 °F 81% 29.68 in 5.6 mi ENE 23.0 mph - N/A   Light Drizzle
6:20 PM 35.6 °F 24.2 °F 28.4 °F 75% 29.68 in 5.6 mi ENE 21.9 mph - N/A   Light Drizzle
6:50 PM 35.6 °F 24.2 °F 28.4 °F 75% 29.71 in 6.2 mi ENE 21.9 mph - N/A   Mostly Cloudy
7:20 PM 35.6 °F 24.2 °F 28.4 °F 75% 29.71 in 6.2 mi ENE 21.9 mph 33.4 mph N/A   Mostly Cloudy
7:50 PM 33.8 °F 21.6 °F 26.6 °F 75% 29.71 in 6.2 mi ENE 23.0 mph - N/A   Mostly Cloudy
8:20 PM 33.8 °F 21.9 °F 24.8 °F 70% 29.71 in 6.2 mi ENE 21.9 mph - N/A   Mostly Cloudy
8:50 PM 33.8 °F 21.0 °F 24.8 °F 70% 29.71 in 6.2 mi ENE 25.3 mph 39.1 mph N/A   Mostly Cloudy
9:20 PM 33.8 °F 21.6 °F 24.8 °F 70% 29.71 in 6.2 mi ENE 23.0 mph 34.5 mph N/A   Mostly Cloudy
9:50 PM 33.8 °F 21.6 °F 23.0 °F 65% 29.71 in 6.2 mi ENE 23.0 mph - N/A   Scattered Clouds
10:20 PM 32.0 °F 19.2 °F 24.8 °F 75% 29.71 in 6.2 mi ENE 23.0 mph 35.7 mph N/A   Partly Cloudy
10:50 PM 32.0 °F 18.6 °F 24.8 °F 75% 29.71 in - ENE 25.3 mph - N/A   Clear
11:20 PM 32.0 °F 19.2 °F 24.8 °F 75% 29.71 in 6.2 mi ENE 23.0 mph - N/A   Partly Cloudy
11:50 PM 32.0 °F 18.9 °F 24.8 °F 75% 29.71 in 6.2 mi ENE 24.2 mph - N/A   Partly Cloudy